Location: Dehesa de la Cepeda
(40.6574°N, 4.3013°W)
Time: 20:36:40
(UTC+00:00)

Vanguard 2 Rocket - Pass Details

Date: 07 August 2021
Orbit: 556 x 3324 km, 32.9° (Epoch: 19 September)

Event Time Altitude Azimuth Distance (km) Brightness Sun altitude
Rises 10:55:05 0° 253° (WSW) 2,741 9.2 59.1°
Maximum altitude 10:59:58 10° 200° (SSW) 2,076 9.1 59.7°
Drops below altitude 10° 11:00:01 10° 199° (SSW) 2,079 9.1 59.7°
Sets 11:06:01 0° 151° (SSE) 3,559 10.4 60.5°
